Home > Weather > Campeche > Past weeks

Flag for Mexico Past Weather in Campeche, Campeche, Mexico — Yesterday and Last 2 Weeks

Now
75 °F

Clear.


Feels Like: 75 °F
Forecast: 79 / 93 °F
Wind: No wind

Location: Aerop. Internacional Merida - Yuc

Current Time: Jul 23, 2016 at 4:18:18 AM

Latest Report: Jul 23, 2016 at 3:45 AM


Visibility: 7 mi

Pressure: 29.98 "Hg

Humidity: 89%

Dew Point: 72 °F

Location of CampecheLocation

Past Weather in Campeche — Graph

°F

Campeche Temperature Yesterday

Maximum temperature yesterday: 93 °F (at 12:40 PM)
Minimum temperature yesterday: 75 °F (at 6:46 AM)
Average temperature yesterday: 82 °F

High & Low Weather Summary for the Past Weeks

 TemperatureHumidityPressure
High99 °F (Jul 17, 2:46 PM)94% (Jul 8, 5:51 AM)30.09 "Hg (Jul 8, 5:51 AM)
Low73 °F (Jul 19, 5:45 AM)34% (Jul 13, 4:43 PM)29.89 "Hg (Jul 16, 5:22 PM)
Average84 °F73%30.00 "Hg
* Reported Jul 8 2:53 AM — Jul 23 2:46 AM, Campeche, Weather by CustomWeather, © 2016

Note: Actual official high and low records may vary slightly from our data, if they occured in-between our weather recording intervals... More about our weather records

Advertising

Campeche Weather History for the Previous 24 Hours

Scroll right to see more
 ConditionsComfort  
Time TempWeatherWind HumidityBarometerVisibility
2:46 AM
Sat, Jul 23
75 °FPassing clouds.5 mph83%29.97 "Hg7 mi
1:45 AM75 °FPassing clouds.5 mph83%29.99 "Hg7 mi
12:45 AM75 °FClear.3 mph83%30.00 "Hg7 mi
11:45 PM
Fri, Jul 22
77 °FPassing clouds.5 mph79%30.02 "Hg7 mi
10:45 PM77 °FPassing clouds.5 mph79%30.03 "Hg7 mi
9:45 PM79 °FPassing clouds.7 mph74%30.04 "Hg7 mi
8:45 PM81 °FPassing clouds.12 mph74%30.00 "Hg7 mi
7:53 PM82 °FPartly sunny.9 mph79%29.99 "Hg7 mi
6:48 PM84 °FPartly sunny.6 mph74%29.98 "Hg7 mi
5:47 PM84 °FBroken clouds.12 mph70%29.98 "Hg7 mi
4:51 PM82 °FBroken clouds.No wind79%29.97 "Hg7 mi
4:31 PM82 °FThunderstorms. Broken clouds.12 mph79%29.98 "Hg7 mi
3:48 PM84 °FThunderstorms. Broken clouds.17 mph79%29.97 "Hg6 mi
2:48 PM91 °FPartly sunny.12 mph56%29.97 "Hg7 mi
12:40 PM93 °FPartly sunny.5 mph53%30.03 "Hg7 mi
10:40 AM88 °FPartly sunny.6 mph66%30.03 "Hg7 mi
7:44 AM79 °FPartly sunny.7 mph89%30.00 "Hg6 mi
6:46 AM75 °FPassing clouds.No wind94%29.99 "Hg6 mi
4:47 AM77 °FPassing clouds.7 mph94%29.99 "Hg7 mi
Weather by CustomWeather, © 2016

See weather overviewHow to use our weather pages